<?xml version="1.0" encoding="UTF-8" standalone="no" ?><gpx xmlns="http://www.topografix.com/GPX/1/1" xmlns:gpxx="http://www.garmin.com/xmlschemas/GpxExtensions/v3" xmlns:wptx1="http://www.garmin.com/xmlschemas/WaypointExtension/v1" xmlns:gpxtpx="http://www.garmin.com/xmlschemas/TrackPointExtension/v1" creator="GuideVTT.com" version="1.1" xmlns:xsi="http://www.w3.org/2001/XMLSchema-instance" xsi:schemaLocation="http://www.topografix.com/GPX/1/1 http://www.topografix.com/GPX/1/1/gpx.xsd http://www.garmin.com/xmlschemas/GpxExtensions/v3 http://www8.garmin.com/xmlschemas/GpxExtensionsv3.xsd http://www.garmin.com/xmlschemas/WaypointExtension/v1 http://www8.garmin.com/xmlschemas/WaypointExtensionv1.xsd http://www.garmin.com/xmlschemas/TrackPointExtension/v1 http://www.garmin.com/xmlschemas/TrackPointExtensionv1.xsd">
<metadata><link href="http://www.garmin.com"><text>Garmin International</text></link><time>2013-06-22T15:13:50Z</time></metadata>
<trk><name>20100606travaille2.gpx</name><extensions><gpxx:TrackExtension><gpxx:DisplayColor>Cyan</gpxx:DisplayColor></gpxx:TrackExtension></extensions><trkseg>
<trkpt lat="46.35057874" lon="7.00954087"><ele>0</ele><time>2010-06-09T19:43:41Z</time></trkpt>
<trkpt lat="46.36316241" lon="7.02463978"><ele>0</ele><time>2010-06-09T19:43:41Z</time></trkpt>
<trkpt lat="46.35708687" lon="7.02139741"><ele>0</ele><time>2010-06-09T19:43:41Z</time></trkpt>
<trkpt lat="46.37036640" lon="7.02631976"><ele>0</ele><time>2010-06-09T19:43:41Z</time></trkpt>
<trkpt lat="46.37036640" lon="7.02631976"><ele>0</ele><time>2010-06-09T19:43:41Z</time></trkpt>
<trkpt lat="46.33880384" lon="7.00704139"><ele>0</ele><time>2010-06-09T19:43:41Z</time></trkpt>
<trkpt lat="46.33880384" lon="7.00704139"><ele>0</ele><time>2010-06-09T19:44:36Z</time></trkpt>
<trkpt lat="47.62420440" lon="1.93005642"><ele>0</ele><time>2010-06-09T19:43:41Z</time></trkpt>
<trkpt lat="46.56986265" lon="6.68918562"><ele>0</ele><time>2010-06-09T19:43:41Z</time></trkpt>
<trkpt lat="46.34269212" lon="7.01105079"><ele>0</ele><time>2010-06-09T19:43:41Z</time></trkpt>
<trkpt lat="46.34269212" lon="7.01105079"><ele>0</ele><time>2010-06-09T19:43:41Z</time></trkpt>
<trkpt lat="47.61929118" lon="1.93647402"><ele>0</ele><time>2010-06-09T19:43:41Z</time></trkpt>
<trkpt lat="38.85554999" lon="-94.79901667"><ele>0</ele><time>2010-06-09T19:43:41Z</time></trkpt>
<trkpt lat="50.98288329" lon="-1.46389998"><ele>0</ele><time>2010-06-09T19:43:42Z</time></trkpt>
<trkpt lat="33.33018995" lon="-111.94611001"><ele>0</ele><time>2010-06-09T19:43:42Z</time></trkpt>
<trkpt lat="25.06178336" lon="121.64026667"><ele>0</ele><time>2010-06-09T19:43:42Z</time></trkpt>
<trkpt lat="46.35672150" lon="7.01535464"><ele>0</ele><time>2010-06-09T19:43:42Z</time></trkpt>
<trkpt lat="46.34961692" lon="7.00685799"><ele>0</ele><time>2010-06-09T19:43:42Z</time></trkpt>
<trkpt lat="46.58114126" lon="6.59533186"><ele>0</ele><time>2010-06-09T19:43:42Z</time></trkpt>
<trkpt lat="46.58114126" lon="6.59533186"><ele>0</ele><time>2010-06-09T19:44:37Z</time></trkpt>
<trkpt lat="44.62174022" lon="4.28196355"><ele>0</ele><time>2010-06-09T19:43:42Z</time></trkpt>
<trkpt lat="46.56315755" lon="6.60320263"><ele>0</ele><time>2010-06-09T19:43:42Z</time></trkpt>
<trkpt lat="46.56315755" lon="6.60320263"><ele>0</ele><time>2010-06-09T19:44:37Z</time></trkpt>
<trkpt lat="46.56315755" lon="6.60320263"><ele>0</ele><time>2010-06-09T19:44:36Z</time></trkpt>
<trkpt lat="46.36632155" lon="7.01482248"><ele>0</ele><time>2010-06-09T19:43:42Z</time></trkpt>
<trkpt lat="46.36632155" lon="7.01482248"><ele>0</ele><time>2010-06-09T19:43:42Z</time></trkpt>
<trkpt lat="46.35303497" lon="7.02502728"><ele>0</ele><time>2010-06-09T19:44:36Z</time></trkpt>
<trkpt lat="46.38977051" lon="7.09442139"><ele>0</ele><time>2010-06-09T19:44:35Z</time></trkpt>
<trkpt lat="46.34582520" lon="7.00927734"><ele>0</ele><time>2010-06-09T19:44:36Z</time></trkpt>
<trkpt lat="46.34355068" lon="7.01309681"><ele>0</ele><time>2010-06-09T19:44:40Z</time></trkpt>
<trkpt lat="46.37432098" lon="7.07706213"><ele>0</ele><time>2010-06-09T19:44:35Z</time></trkpt>
<trkpt lat="46.36822701" lon="7.07646132"><ele>0</ele><time>2010-06-09T19:44:35Z</time></trkpt>
<trkpt lat="46.36088848" lon="7.06169844"><ele>0</ele><time>2010-06-09T19:44:35Z</time></trkpt>
<trkpt lat="46.35867834" lon="7.04684973"><ele>0</ele><time>2010-06-09T19:44:35Z</time></trkpt>
<trkpt lat="46.56310374" lon="6.60283333"><ele>0</ele><time>2010-06-09T19:44:36Z</time></trkpt>
<trkpt lat="46.56271935" lon="6.60304070"><ele>0</ele><time>2010-06-09T19:44:36Z</time></trkpt>
<trkpt lat="46.56263351" lon="6.60377026"><ele>0</ele><time>2010-06-09T19:44:36Z</time></trkpt>
<trkpt lat="46.58082962" lon="6.60587311"><ele>0</ele><time>2010-06-09T19:44:36Z</time></trkpt>
<trkpt lat="46.58095837" lon="6.60578728"><ele>0</ele><time>2010-06-09T19:44:37Z</time></trkpt>
<trkpt lat="46.58258915" lon="6.60050869"><ele>0</ele><time>2010-06-09T19:44:37Z</time></trkpt>
<trkpt lat="46.58267498" lon="6.60020828"><ele>0</ele><time>2010-06-09T19:44:37Z</time></trkpt>
<trkpt lat="46.58082962" lon="6.59570217"><ele>0</ele><time>2010-06-09T19:44:37Z</time></trkpt>
<trkpt lat="46.56310374" lon="6.60283333"><ele>0</ele><time>2010-06-09T19:44:37Z</time></trkpt>
<trkpt lat="46.56271935" lon="6.60304070"><ele>0</ele><time>2010-06-09T19:44:37Z</time></trkpt>
<trkpt lat="46.56263351" lon="6.60377026"><ele>0</ele><time>2010-06-09T19:44:38Z</time></trkpt>
<trkpt lat="46.55696869" lon="6.60132408"><ele>0</ele><time>2010-06-09T19:44:38Z</time></trkpt>
<trkpt lat="46.55417919" lon="6.62033558"><ele>0</ele><time>2010-06-09T19:44:38Z</time></trkpt>
<trkpt lat="46.55143261" lon="6.62093639"><ele>0</ele><time>2010-06-09T19:44:38Z</time></trkpt>
<trkpt lat="46.55104637" lon="6.62372589"><ele>0</ele><time>2010-06-09T19:44:38Z</time></trkpt>
<trkpt lat="46.54868603" lon="6.62381172"><ele>0</ele><time>2010-06-09T19:44:38Z</time></trkpt>
<trkpt lat="46.32123470" lon="6.94001198"><ele>0</ele><time>2010-06-09T19:44:38Z</time></trkpt>
<trkpt lat="46.32071972" lon="6.93863869"><ele>0</ele><time>2010-06-09T19:44:38Z</time></trkpt>
<trkpt lat="46.32312298" lon="6.95138454"><ele>0</ele><time>2010-06-09T19:44:39Z</time></trkpt>
<trkpt lat="46.32719994" lon="6.95898056"><ele>0</ele><time>2010-06-09T19:44:39Z</time></trkpt>
<trkpt lat="46.31913185" lon="6.97048187"><ele>0</ele><time>2010-06-09T19:44:39Z</time></trkpt>
<trkpt lat="46.31896019" lon="6.97078228"><ele>0</ele><time>2010-06-09T19:44:39Z</time></trkpt>
<trkpt lat="46.32183552" lon="7.00073719"><ele>0</ele><time>2010-06-09T19:44:39Z</time></trkpt>
<trkpt lat="46.36110306" lon="7.04923153"><ele>0</ele><time>2010-06-09T19:44:39Z</time></trkpt>
<trkpt lat="46.36054516" lon="7.05395222"><ele>0</ele><time>2010-06-09T19:44:39Z</time></trkpt>
<trkpt lat="46.36256218" lon="7.05051899"><ele>0</ele><time>2010-06-09T19:44:39Z</time></trkpt>
<trkpt lat="46.35436535" lon="7.03494072"><ele>0</ele><time>2010-06-09T19:44:40Z</time></trkpt>
<trkpt lat="46.34191990" lon="7.01743126"><ele>0</ele><time>2010-06-09T19:44:40Z</time></trkpt>
<trkpt lat="46.34264946" lon="7.01352596"><ele>0</ele><time>2010-06-09T19:44:40Z</time></trkpt>
<trkpt lat="46.34282112" lon="7.01331139"><ele>0</ele><time>2010-06-09T19:44:40Z</time></trkpt>
<trkpt lat="46.34294987" lon="7.01331139"><ele>0</ele><time>2010-06-09T19:44:40Z</time></trkpt>
<trkpt lat="46.34307861" lon="7.01271057"><ele>0</ele><time>2010-06-09T19:44:40Z</time></trkpt>
<trkpt lat="46.35008396" lon="7.15524391"><ele>0</ele><time>2010-06-09T19:43:42Z</time></trkpt>
<trkpt lat="46.35008396" lon="7.15524391"><ele>0</ele><time>2010-06-09T19:43:42Z</time></trkpt>
<trkpt lat="46.36064725" lon="7.00961044"><ele>0</ele><time>2010-06-09T19:43:43Z</time></trkpt>
<trkpt lat="46.36064725" lon="7.00961044"><ele>0</ele><time>2010-06-09T19:43:43Z</time></trkpt>
<trkpt lat="46.35950496" lon="7.00221173"><ele>0</ele><time>2010-06-09T19:43:43Z</time></trkpt>
<trkpt lat="46.09371331" lon="7.23317659"><ele>0</ele><time>2010-06-09T19:43:43Z</time></trkpt>
<trkpt lat="46.34672491" lon="7.01796770"><ele>0</ele><time>2010-06-09T19:43:43Z</time></trkpt>
<trkpt lat="46.34672491" lon="7.01796770"><ele>0</ele><time>2010-06-09T19:43:43Z</time></trkpt>
<trkpt lat="46.57982497" lon="6.60320330"><ele>0</ele><time>2010-06-09T19:43:43Z</time></trkpt>
<trkpt lat="46.69453064" lon="6.76001539"><ele>0</ele><time>2010-06-09T19:43:43Z</time></trkpt>
<trkpt lat="" lon=""><ele>0</ele><time>Year-Month#-Day#THour:Min:SecZ</time></trkpt>
<trkpt lat="46.67462111" lon="6.80060148"><ele>528.381836</ele><time>2010-06-06T07:37:01Z</time></trkpt>
<trkpt lat="46.67444944" lon="6.80042982"><ele>527.901001</ele><time>2010-06-06T07:37:06Z</time></trkpt>
<trkpt lat="46.67438507" lon="6.80032253"><ele>526.939819</ele><time>2010-06-06T07:37:08Z</time></trkpt>
<trkpt lat="46.67387009" lon="6.79942131"><ele>527.901001</ele><time>2010-06-06T07:37:30Z</time></trkpt>
<trkpt lat="46.67337656" lon="6.79858446"><ele>528.381836</ele><time>2010-06-06T07:37:54Z</time></trkpt>
<trkpt lat="46.67341948" lon="6.79832697"><ele>529.34314</ele><time>2010-06-06T07:38:03Z</time></trkpt>
<trkpt lat="46.67301178" lon="6.79789782"><ele>527.42041</ele><time>2010-06-06T07:38:17Z</time></trkpt>
<trkpt lat="46.67284012" lon="6.79766178"><ele>527.42041</ele><time>2010-06-06T07:38:24Z</time></trkpt>
<trkpt lat="46.67284012" lon="6.79759741"><ele>528.381836</ele><time>2010-06-06T07:38:27Z</time></trkpt>
<trkpt lat="46.67320490" lon="6.79733992"><ele>531.746338</ele><time>2010-06-06T07:38:46Z</time></trkpt>
<trkpt lat="46.67337656" lon="6.79731846"><ele>535.110962</ele><time>2010-06-06T07:38:58Z</time></trkpt>
<trkpt lat="46.67365551" lon="6.79723263"><ele>537.514282</ele><time>2010-06-06T07:39:16Z</time></trkpt>
<trkpt lat="46.67374134" lon="6.79721117"><ele>539.917603</ele><time>2010-06-06T07:39:23Z</time></trkpt>
<trkpt lat="46.67391300" lon="6.79721117"><ele>543.282104</ele><time>2010-06-06T07:39:36Z</time></trkpt>
<trkpt lat="46.67395592" lon="6.79723263"><ele>542.801514</ele><time>2010-06-06T07:39:50Z</time></trkpt>
<trkpt lat="46.67408466" lon="6.79759741"><ele>544.243652</ele><time>2010-06-06T07:40:03Z</time></trkpt>
<trkpt lat="46.67417049" lon="6.79783344"><ele>547.608154</ele><time>2010-06-06T07:40:14Z</time></trkpt>
<trkpt lat="46.67434216" lon="6.79821968"><ele>550.972656</ele><time>2010-06-06T07:40:33Z</time></trkpt>
<trkpt lat="46.67468548" lon="6.79849863"><ele>553.856689</ele><time>2010-06-06T07:40:59Z</time></trkpt>
<trkpt lat="46.67483568" lon="6.79860592"><ele>557.221436</ele><time>2010-06-06T07:41:10Z</time></trkpt>
<trkpt lat="46.67513609" lon="6.79877758"><ele>560.585938</ele><time>2010-06-06T07:41:32Z</time></trkpt>
<trkpt lat="46.67530775" lon="6.79882050"><ele>563.950439</ele><time>2010-06-06T07:41:43Z</time></trkpt>
<trkpt lat="46.67530775" lon="6.79884195"><ele>563.469971</ele><time>2010-06-06T07:41:44Z</time></trkpt>
<trkpt lat="46.67556524" lon="6.79899216"><ele>566.35376</ele><time>2010-06-06T07:42:02Z</time></trkpt>
<trkpt lat="46.67569399" lon="6.79903507"><ele>567.315186</ele><time>2010-06-06T07:42:10Z</time></trkpt>
<trkpt lat="46.67577982" lon="6.79903507"><ele>568.276367</ele><time>2010-06-06T07:42:16Z</time></trkpt>
<trkpt lat="46.67601585" lon="6.79879904"><ele>571.640869</ele><time>2010-06-06T07:42:33Z</time></trkpt>
<trkpt lat="46.67595148" lon="6.79862738"><ele>573.083252</ele><time>2010-06-06T07:42:40Z</time></trkpt>
<trkpt lat="46.67571545" lon="6.79819822"><ele>576.447754</ele><time>2010-06-06T07:43:03Z</time></trkpt>
<trkpt lat="46.67562962" lon="6.79804802"><ele>576.928467</ele><time>2010-06-06T07:43:12Z</time></trkpt>
<trkpt lat="46.67558670" lon="6.79759741"><ele>579.812256</ele><time>2010-06-06T07:43:31Z</time></trkpt>
<trkpt lat="46.67562962" lon="6.79746866"><ele>581.734863</ele><time>2010-06-06T07:43:38Z</time></trkpt>
<trkpt lat="46.67597294" lon="6.79729700"><ele>585.099609</ele><time>2010-06-06T07:44:00Z</time></trkpt>
<trkpt lat="46.67623043" lon="6.79712534"><ele>587.502686</ele><time>2010-06-06T07:44:23Z</time></trkpt>
<trkpt lat="46.67629480" lon="6.79686785"><ele>590.867432</ele><time>2010-06-06T07:44:37Z</time></trkpt>
<trkpt lat="46.67631626" lon="6.79661036"><ele>593.751465</ele><time>2010-06-06T07:44:52Z</time></trkpt>
<trkpt lat="46.67635918" lon="6.79633141"><ele>596.635498</ele><time>2010-06-06T07:45:05Z</time></trkpt>
<trkpt lat="46.67638063" lon="6.79598808"><ele>600</ele><time>2010-06-06T07:45:24Z</time></trkpt>
<trkpt lat="46.67635918" lon="6.79558039"><ele>603.364502</ele><time>2010-06-06T07:45:44Z</time></trkpt>
<trkpt lat="46.67633772" lon="6.79521561"><ele>606.729248</ele><time>2010-06-06T07:46:03Z</time></trkpt>
<trkpt lat="46.67631626" lon="6.79485083"><ele>610.09375</ele><time>2010-06-06T07:46:21Z</time></trkpt>
<trkpt lat="46.67627335" lon="6.79461479"><ele>612.016602</ele><time>2010-06-06T07:46:33Z</time></trkpt>
<trkpt lat="46.67608023" lon="6.79399252"><ele>614.900391</ele><time>2010-06-06T07:47:08Z</time></trkpt>
<trkpt lat="46.67599440" lon="6.79373503"><ele>618.264893</ele><time>2010-06-06T07:47:22Z</time></trkpt>
<trkpt lat="46.67597294" lon="6.79371357"><ele>618.745605</ele><time>2010-06-06T07:47:23Z</time></trkpt>
<trkpt lat="46.67590857" lon="6.79354191"><ele>620.668457</ele><time>2010-06-06T07:47:34Z</time></trkpt>
<trkpt lat="46.67584419" lon="6.79326296"><ele>624.032959</ele><time>2010-06-06T07:47:49Z</time></trkpt>
<trkpt lat="46.67580128" lon="6.79296255"><ele>626.916992</ele><time>2010-06-06T07:48:06Z</time></trkpt>
<trkpt lat="46.67569399" lon="6.79249048"><ele>630.762207</ele><time>2010-06-06T07:48:31Z</time></trkpt>
<trkpt lat="46.67558670" lon="6.79193258"><ele>633.165283</ele><time>2010-06-06T07:49:04Z</time></trkpt>
<trkpt lat="46.67554379" lon="6.79184675"><ele>635.088135</ele><time>2010-06-06T07:49:10Z</time></trkpt>
<trkpt lat="46.67554379" lon="6.79182529"><ele>634.607422</ele><time>2010-06-06T07:49:11Z</time></trkpt>
<trkpt lat="46.67541504" lon="6.79171801"><ele>637.972168</ele><time>2010-06-06T07:49:20Z</time></trkpt>
<trkpt lat="46.67541504" lon="6.79169655"><ele>637.972168</ele><time>2010-06-06T07:49:21Z</time></trkpt>
<trkpt lat="46.67515755" lon="6.79148197"><ele>641.33667</ele><time>2010-06-06T07:49:43Z</time></trkpt>
<trkpt lat="46.67492151" lon="6.79128885"><ele>644.701172</ele><time>2010-06-06T07:50:04Z</time></trkpt>
<trkpt lat="46.67477131" lon="6.79107428"><ele>647.585205</ele><time>2010-06-06T07:50:21Z</time></trkpt>
<trkpt lat="46.67466402" lon="6.79092407"><ele>650.469238</ele><time>2010-06-06T07:50:32Z</time></trkpt>
<trkpt lat="46.67459965" lon="6.79070950"><ele>653.353271</ele><time>2010-06-06T07:50:45Z</time></trkpt>
<trkpt lat="46.67468548" lon="6.79058075"><ele>654.795166</ele><time>2010-06-06T07:50:57Z</time></trkpt>
<trkpt lat="46.67494297" lon="6.79070950"><ele>656.237061</ele><time>2010-06-06T07:51:18Z</time></trkpt>
<trkpt lat="46.67498589" lon="6.79073095"><ele>656.237061</ele><time>2010-06-06T07:51:22Z</time></trkpt>
<trkpt lat="46.67505026" lon="6.79081678"><ele>655.275879</ele><time>2010-06-06T07:51:28Z</time></trkpt>
<trkpt lat="46.67530775" lon="6.79094553"><ele>656.717773</ele><time>2010-06-06T07:51:46Z</time></trkpt>
<trkpt lat="46.67571545" lon="6.79122448"><ele>656.717773</ele><time>2010-06-06T07:52:05Z</time></trkpt>
<trkpt lat="46.67582273" lon="6.79131031"><ele>656.717773</ele><time>2010-06-06T07:52:13Z</time></trkpt>
<trkpt lat="46.67588711" lon="6.79128885"><ele>657.679199</ele><time>2010-06-06T07:52:17Z</time></trkpt>
<trkpt lat="46.67590857" lon="6.79126740"><ele>658.640381</ele><time>2010-06-06T07:52:20Z</time></trkpt>
<trkpt lat="46.67588711" lon="6.79120302"><ele>658.640381</ele><time>2010-06-06T07:52:24Z</time></trkpt>
<trkpt lat="46.67569399" lon="6.79090261"><ele>659.601807</ele><time>2010-06-06T07:52:43Z</time></trkpt>
<trkpt lat="46.67556524" lon="6.79075241"><ele>662.485596</ele><time>2010-06-06T07:52:55Z</time></trkpt>
<trkpt lat="46.67545795" lon="6.79060221"><ele>663.92749</ele><time>2010-06-06T07:53:06Z</time></trkpt>
<trkpt lat="46.67541504" lon="6.79058075"><ele>665.850342</ele><time>2010-06-06T07:53:10Z</time></trkpt>
<trkpt lat="46.67526484" lon="6.79032326"><ele>668.253662</ele><time>2010-06-06T07:53:28Z</time></trkpt>
<trkpt lat="46.67511463" lon="6.79006577"><ele>671.137695</ele><time>2010-06-06T07:53:45Z</time></trkpt>
<trkpt lat="46.67500734" lon="6.78976536"><ele>674.502197</ele><time>2010-06-06T07:54:03Z</time></trkpt>
<trkpt lat="46.67492151" lon="6.78944349"><ele>676.424805</ele><time>2010-06-06T07:54:23Z</time></trkpt>
<trkpt lat="46.67494297" lon="6.78925037"><ele>679.789307</ele><time>2010-06-06T07:54:33Z</time></trkpt>
<trkpt lat="46.67494297" lon="6.78914309"><ele>681.231445</ele><time>2010-06-06T07:54:39Z</time></trkpt>
<trkpt lat="46.67492151" lon="6.78910017"><ele>682.192627</ele><time>2010-06-06T07:54:42Z</time></trkpt>
<trkpt lat="46.67492151" lon="6.78905725"><ele>682.67334</ele><time>2010-06-06T07:54:44Z</time></trkpt>
<trkpt lat="46.67494297" lon="6.78899288"><ele>684.115479</ele><time>2010-06-06T07:54:48Z</time></trkpt>
<trkpt lat="46.67494297" lon="6.78892851"><ele>685.076904</ele><time>2010-06-06T07:54:51Z</time></trkpt>
<trkpt lat="46.67496443" lon="6.78869247"><ele>687.960693</ele><time>2010-06-06T07:55:02Z</time></trkpt>
<trkpt lat="46.67490005" lon="6.78832769"><ele>691.805908</ele><time>2010-06-06T07:55:22Z</time></trkpt>
<trkpt lat="46.67492151" lon="6.78832769"><ele>691.805908</ele><time>2010-06-06T07:55:23Z</time></trkpt>
<trkpt lat="46.67494297" lon="6.78796291"><ele>694.689697</ele><time>2010-06-06T07:55:41Z</time></trkpt>
<trkpt lat="46.67494297" lon="6.78770542"><ele>697.093018</ele><time>2010-06-06T07:55:55Z</time></trkpt>
<trkpt lat="46.67494297" lon="6.78768396"><ele>698.054443</ele><time>2010-06-06T07:55:56Z</time></trkpt>
<trkpt lat="46.67494297" lon="6.78755522"><ele>699.496338</ele><time>2010-06-06T07:56:03Z</time></trkpt>
<trkpt lat="46.67485714" lon="6.78719044"><ele>703.341797</ele><time>2010-06-06T07:56:22Z</time></trkpt>
<trkpt lat="46.67477131" lon="6.78693295"><ele>704.783691</ele><time>2010-06-06T07:56:37Z</time></trkpt>
<trkpt lat="46.67474985" lon="6.78689003"><ele>705.264404</ele><time>2010-06-06T07:56:41Z</time></trkpt>
<trkpt lat="46.67466402" lon="6.78665400"><ele>705.264404</ele><time>2010-06-06T07:56:55Z</time></trkpt>
<trkpt lat="46.67455673" lon="6.78643942"><ele>705.745117</ele><time>2010-06-06T07:57:09Z</time></trkpt>
<trkpt lat="46.67449236" lon="6.78631067"><ele>705.264404</ele><time>2010-06-06T07:57:18Z</time></trkpt>
<trkpt lat="46.67447090" lon="6.78624630"><ele>705.264404</ele><time>2010-06-06T07:57:22Z</time></trkpt>
<trkpt lat="46.67427778" lon="6.78596735"><ele>705.264404</ele><time>2010-06-06T07:57:39Z</time></trkpt>
<trkpt lat="46.67410612" lon="6.78568840"><ele>705.745117</ele><time>2010-06-06T07:57:56Z</time></trkpt>
<trkpt lat="46.67389154" lon="6.78519487"><ele>706.225586</ele><time>2010-06-06T07:58:17Z</time></trkpt>
<trkpt lat="46.67371988" lon="6.78457260"><ele>709.109619</ele><time>2010-06-06T07:58:38Z</time></trkpt>
<trkpt lat="46.67359114" lon="6.78414345"><ele>711.032227</ele><time>2010-06-06T07:58:54Z</time></trkpt>
<trkpt lat="46.67350531" lon="6.78386450"><ele>714.396729</ele><time>2010-06-06T07:59:04Z</time></trkpt>
<trkpt lat="46.67341948" lon="6.78358555"><ele>717.761475</ele><time>2010-06-06T07:59:14Z</time></trkpt>
<trkpt lat="46.67329073" lon="6.78317785"><ele>720.164795</ele><time>2010-06-06T07:59:30Z</time></trkpt>
<trkpt lat="46.67324781" lon="6.78270578"><ele>723.048828</ele><time>2010-06-06T07:59:48Z</time></trkpt>
<trkpt lat="46.67335510" lon="6.78240538"><ele>724.490723</ele><time>2010-06-06T08:00:01Z</time></trkpt>
<trkpt lat="46.67344093" lon="6.78206205"><ele>727.374756</ele><time>2010-06-06T08:00:19Z</time></trkpt>
<trkpt lat="46.67354822" lon="6.78176165"><ele>729.297119</ele><time>2010-06-06T08:00:35Z</time></trkpt>
<trkpt lat="46.67359114" lon="6.78165436"><ele>732.662109</ele><time>2010-06-06T08:00:41Z</time></trkpt>
<trkpt lat="46.67374134" lon="6.78137541"><ele>735.06543</ele><time>2010-06-06T08:00:59Z</time></trkpt>
<trkpt lat="46.67374134" lon="6.78135395"><ele>735.545898</ele><time>2010-06-06T08:01:01Z</time></trkpt>
<trkpt lat="46.67387009" lon="6.78107500"><ele>738.429932</ele><time>2010-06-06T08:01:20Z</time></trkpt>
<trkpt lat="46.67395592" lon="6.78077459"><ele>740.352539</ele><time>2010-06-06T08:01:38Z</time></trkpt>
<trkpt lat="46.67402029" lon="6.78053856"><ele>743.236328</ele><time>2010-06-06T08:01:51Z</time></trkpt>
<trkpt lat="46.67406321" lon="6.78015232"><ele>745.158936</ele><time>2010-06-06T08:02:11Z</time></trkpt>
<trkpt lat="46.67408466" lon="6.78008795"><ele>745.639648</ele><time>2010-06-06T08:02:16Z</time></trkpt>
<trkpt lat="46.67419195" lon="6.77993774"><ele>746.120361</ele><time>2010-06-06T08:02:27Z</time></trkpt>
<trkpt lat="46.67440653" lon="6.77972317"><ele>748.043213</ele><time>2010-06-06T08:02:44Z</time></trkpt>
<trkpt lat="46.67455673" lon="6.77946568"><ele>750.446533</ele><time>2010-06-06T08:03:02Z</time></trkpt>
<trkpt lat="46.67464256" lon="6.77918673"><ele>751.888428</ele><time>2010-06-06T08:03:17Z</time></trkpt>
<trkpt lat="46.67472839" lon="6.77886486"><ele>755.25293</ele><time>2010-06-06T08:03:34Z</time></trkpt>
<trkpt lat="46.67479277" lon="6.77862883"><ele>758.617432</ele><time>2010-06-06T08:03:46Z</time></trkpt>
<trkpt lat="46.67492151" lon="6.77826405"><ele>761.501465</ele><time>2010-06-06T08:04:06Z</time></trkpt>
<trkpt lat="46.67502880" lon="6.77789927"><ele>762.943359</ele><time>2010-06-06T08:04:25Z</time></trkpt>
<trkpt lat="46.67515755" lon="6.77762032"><ele>766.308105</ele><time>2010-06-06T08:04:42Z</time></trkpt>
<trkpt lat="46.67528629" lon="6.77749157"><ele>767.75</ele><time>2010-06-06T08:04:51Z</time></trkpt>
<trkpt lat="46.67532921" lon="6.77749157"><ele>768.711426</ele><time>2010-06-06T08:05:05Z</time></trkpt>
<trkpt lat="46.67532921" lon="6.77751303"><ele>768.230713</ele><time>2010-06-06T08:05:39Z</time></trkpt>
<trkpt lat="46.67532921" lon="6.77747011"><ele>771.595215</ele><time>2010-06-06T08:08:16Z</time></trkpt>
<trkpt lat="46.67535067" lon="6.77749157"><ele>771.114746</ele><time>2010-06-06T08:08:35Z</time></trkpt>
<trkpt lat="46.67539358" lon="6.77749157"><ele>771.595215</ele><time>2010-06-06T08:08:44Z</time></trkpt>
<trkpt lat="46.67556524" lon="6.77774906"><ele>770.634033</ele><time>2010-06-06T08:09:01Z</time></trkpt>
<trkpt lat="46.67577982" lon="6.77802801"><ele>770.15332</ele><time>2010-06-06T08:09:17Z</time></trkpt>
<trkpt lat="46.67601585" lon="6.77841425"><ele>768.711426</ele><time>2010-06-06T08:09:33Z</time></trkpt>
<trkpt lat="46.67644501" lon="6.77910089"><ele>766.788818</ele><time>2010-06-06T08:09:52Z</time></trkpt>
<trkpt lat="46.67653084" lon="6.77931547"><ele>766.308105</ele><time>2010-06-06T08:10:01Z</time></trkpt>
<trkpt lat="46.67668104" lon="6.77970171"><ele>763.904541</ele><time>2010-06-06T08:10:20Z</time></trkpt>
<trkpt lat="46.67680979" lon="6.78002357"><ele>760.540039</ele><time>2010-06-06T08:10:33Z</time></trkpt>
<trkpt lat="46.67683125" lon="6.78008795"><ele>760.059326</ele><time>2010-06-06T08:10:35Z</time></trkpt>
<trkpt lat="46.67685270" lon="6.78015232"><ele>758.136963</ele><time>2010-06-06T08:10:38Z</time></trkpt>
<trkpt lat="46.67691708" lon="6.78021669"><ele>757.65625</ele><time>2010-06-06T08:10:40Z</time></trkpt>
<trkpt lat="46.67719603" lon="6.78015232"><ele>758.136963</ele><time>2010-06-06T08:10:45Z</time></trkpt>
<trkpt lat="46.67820454" lon="6.78053856"><ele>754.772217</ele><time>2010-06-06T08:10:49Z</time></trkpt>
<trkpt lat="46.67809725" lon="6.78109646"><ele>749.96582</ele><time>2010-06-06T08:10:53Z</time></trkpt>
<trkpt lat="46.67805433" lon="6.78120375"><ele>749.96582</ele><time>2010-06-06T08:10:54Z</time></trkpt>
<trkpt lat="46.67794704" lon="6.78167582"><ele>746.601074</ele><time>2010-06-06T08:10:58Z</time></trkpt>
<trkpt lat="46.67792559" lon="6.78180456"><ele>746.601074</ele><time>2010-06-06T08:10:59Z</time></trkpt>
<trkpt lat="46.67760372" lon="6.78238392"><ele>749.485107</ele><time>2010-06-06T08:11:05Z</time></trkpt>
<trkpt lat="46.67749643" lon="6.78249121"><ele>749.96582</ele><time>2010-06-06T08:11:07Z</time></trkpt>
<trkpt lat="46.67745352" lon="6.78268433"><ele>752.368896</ele><time>2010-06-06T08:11:11Z</time></trkpt>
<trkpt lat="46.67756081" lon="6.78315639"><ele>755.25293</ele><time>2010-06-06T08:11:24Z</time></trkpt>
<trkpt lat="46.67758226" lon="6.78330660"><ele>755.733643</ele><time>2010-06-06T08:11:28Z</time></trkpt>
<trkpt lat="46.67794704" lon="6.78356409"><ele>757.65625</ele><time>2010-06-06T08:11:44Z</time></trkpt>
<trkpt lat="46.67801142" lon="6.78358555"><ele>758.136963</ele><time>2010-06-06T08:11:48Z</time></trkpt>
<trkpt lat="46.67833328" lon="6.78397179"><ele>761.020752</ele><time>2010-06-06T08:12:08Z</time></trkpt>
<trkpt lat="46.67874098" lon="6.78452969"><ele>762.943359</ele><time>2010-06-06T08:12:30Z</time></trkpt>
<trkpt lat="46.67899847" lon="6.78485155"><ele>760.059326</ele><time>2010-06-06T08:12:45Z</time></trkpt>
<trkpt lat="46.67923450" lon="6.78532362"><ele>756.214111</ele><time>2010-06-06T08:12:54Z</time></trkpt>
<trkpt lat="46.67959929" lon="6.78607464"><ele>753.330322</ele><time>2010-06-06T08:13:08Z</time></trkpt>
<trkpt lat="46.67962074" lon="6.78613901"><ele>752.849609</ele><time>2010-06-06T08:13:09Z</time></trkpt>
<trkpt lat="46.67981386" lon="6.78641796"><ele>749.004395</ele><time>2010-06-06T08:13:15Z</time></trkpt>
<trkpt lat="46.67994261" lon="6.78669691"><ele>744.197754</ele><time>2010-06-06T08:13:19Z</time></trkpt>
<trkpt lat="46.68000698" lon="6.78684711"><ele>741.313721</ele><time>2010-06-06T08:13:21Z</time></trkpt>
<trkpt lat="46.68030739" lon="6.78731918"><ele>737.949219</ele><time>2010-06-06T08:13:29Z</time></trkpt>
<trkpt lat="46.68052197" lon="6.78759813"><ele>735.06543</ele><time>2010-06-06T08:13:36Z</time></trkpt>
<trkpt lat="46.68065071" lon="6.78776979"><ele>732.181396</ele><time>2010-06-06T08:13:41Z</time></trkpt>
<trkpt lat="46.68073654" lon="6.78789854"><ele>730.739258</ele><time>2010-06-06T08:13:44Z</time></trkpt>
<trkpt lat="46.68082237" lon="6.78809166"><ele>726.894043</ele><time>2010-06-06T08:13:48Z</time></trkpt>
<trkpt lat="46.68084383" lon="6.78813457"><ele>727.374756</ele><time>2010-06-06T08:13:49Z</time></trkpt>
<trkpt lat="46.68095112" lon="6.78843498"><ele>724.01001</ele><time>2010-06-06T08:13:55Z</time></trkpt>
<trkpt lat="46.68107986" lon="6.78871393"><ele>721.126221</ele><time>2010-06-06T08:14:01Z</time></trkpt>
<trkpt lat="46.68127298" lon="6.78901434"><ele>717.281006</ele><time>2010-06-06T08:14:13Z</time></trkpt>
<trkpt lat="46.68129444" lon="6.78903580"><ele>717.281006</ele><time>2010-06-06T08:14:14Z</time></trkpt>
<trkpt lat="46.68146610" lon="6.78920746"><ele>714.396729</ele><time>2010-06-06T08:14:25Z</time></trkpt>
<trkpt lat="46.68157339" lon="6.78929329"><ele>714.877441</ele><time>2010-06-06T08:14:36Z</time></trkpt>
<trkpt lat="46.68163776" lon="6.78922892"><ele>716.800293</ele><time>2010-06-06T08:14:48Z</time></trkpt>
<trkpt lat="46.68198109" lon="6.78912163"><ele>716.31958</ele><time>2010-06-06T08:15:08Z</time></trkpt>
<trkpt lat="46.68204546" lon="6.78907871"><ele>716.31958</ele><time>2010-06-06T08:15:12Z</time></trkpt>
<trkpt lat="46.68195963" lon="6.78873539"><ele>718.7229</ele><time>2010-06-06T08:15:24Z</time></trkpt>
<trkpt lat="46.68189526" lon="6.78845644"><ele>722.568115</ele><time>2010-06-06T08:15:34Z</time></trkpt>
<trkpt lat="46.68185234" lon="6.78800583"><ele>725.451904</ele><time>2010-06-06T08:15:53Z</time></trkpt>
<trkpt lat="46.68185234" lon="6.78796291"><ele>725.932617</ele><time>2010-06-06T08:15:55Z</time></trkpt>
<trkpt lat="46.68217421" lon="6.78768396"><ele>728.81665</ele><time>2010-06-06T08:16:08Z</time></trkpt>
<trkpt lat="46.68174505" lon="6.78719044"><ele>731.219971</ele><time>2010-06-06T08:16:23Z</time></trkpt>
<trkpt lat="46.68159485" lon="6.78669691"><ele>733.142578</ele><time>2010-06-06T08:16:46Z</time></trkpt>
<trkpt lat="46.68133736" lon="6.78628922"><ele>736.507324</ele><time>2010-06-06T08:17:03Z</time></trkpt>
<trkpt lat="46.68123007" lon="6.78598881"><ele>732.662109</ele><time>2010-06-06T08:17:15Z</time></trkpt>
<trkpt lat="46.68123007" lon="6.78586006"><ele>730.739258</ele><time>2010-06-06T08:17:17Z</time></trkpt>
<trkpt lat="46.68123007" lon="6.78570986"><ele>727.855225</ele><time>2010-06-06T08:17:19Z</time></trkpt>
<trkpt lat="46.68125153" lon="6.78562403"><ele>727.855225</ele><time>2010-06-06T08:17:20Z</time></trkpt>
<trkpt lat="46.68125153" lon="6.78536654"><ele>727.855225</ele><time>2010-06-06T08:17:23Z</time></trkpt>
<trkpt lat="46.68127298" lon="6.78508759"><ele>724.971436</ele><time>2010-06-06T08:17:27Z</time></trkpt>
<trkpt lat="46.68127298" lon="6.78498030"><ele>720.164795</ele><time>2010-06-06T08:17:29Z</time></trkpt>
<trkpt lat="46.68125153" lon="6.78491592"><ele>718.7229</ele><time>2010-06-06T08:17:30Z</time></trkpt>
<trkpt lat="46.68127298" lon="6.78455114"><ele>722.568115</ele><time>2010-06-06T08:17:35Z</time></trkpt>
<trkpt lat="46.68127298" lon="6.78450823"><ele>722.568115</ele><time>2010-06-06T08:17:36Z</time></trkpt>
<trkpt lat="46.68127298" lon="6.78418636"><ele>724.490723</ele><time>2010-06-06T08:17:49Z</time></trkpt>
<trkpt lat="46.68127298" lon="6.78416491"><ele>727.374756</ele><time>2010-06-06T08:18:01Z</time></trkpt>
<trkpt lat="46.68125153" lon="6.78403616"><ele>730.739258</ele><time>2010-06-06T08:18:15Z</time></trkpt>
<trkpt lat="46.68125153" lon="6.78403616"><ele>731.219971</ele><time>2010-06-06T08:18:16Z</time></trkpt>
<trkpt lat="46.68120861" lon="6.78392887"><ele>734.584717</ele><time>2010-06-06T08:18:38Z</time></trkpt>
<trkpt lat="46.68116570" lon="6.78384304"><ele>737.468506</ele><time>2010-06-06T08:18:58Z</time></trkpt>
<trkpt lat="46.68112278" lon="6.78360701"><ele>741.313721</ele><time>2010-06-06T08:19:19Z</time></trkpt>
<trkpt lat="46.68095112" lon="6.78304911"><ele>744.197754</ele><time>2010-06-06T08:20:02Z</time></trkpt>
<trkpt lat="46.68084383" lon="6.78281307"><ele>747.562256</ele><time>2010-06-06T08:20:15Z</time></trkpt>
<trkpt lat="46.68073654" lon="6.78257704"><ele>749.485107</ele><time>2010-06-06T08:20:31Z</time></trkpt>
<trkpt lat="46.68073654" lon="6.78204060"><ele>752.368896</ele><time>2010-06-06T08:20:55Z</time></trkpt>
<trkpt lat="46.68090820" lon="6.78107500"><ele>754.772217</ele><time>2010-06-06T08:21:18Z</time></trkpt>
<trkpt lat="46.68056488" lon="6.78137541"><ele>755.733643</ele><time>2010-06-06T08:21:23Z</time></trkpt>
<trkpt lat="46.68050051" lon="6.78113937"><ele>757.65625</ele><time>2010-06-06T08:21:37Z</time></trkpt>
<trkpt lat="46.68043613" lon="6.78103209"><ele>758.617432</ele><time>2010-06-06T08:21:46Z</time></trkpt>
<trkpt lat="46.68013573" lon="6.78088188"><ele>761.501465</ele><time>2010-06-06T08:22:10Z</time></trkpt>
<trkpt lat="46.67985678" lon="6.78083897"><ele>761.982178</ele><time>2010-06-06T08:22:32Z</time></trkpt>
<trkpt lat="46.67951345" lon="6.78075314"><ele>761.020752</ele><time>2010-06-06T08:22:55Z</time></trkpt>
<trkpt lat="46.67940617" lon="6.78066730"><ele>761.982178</ele><time>2010-06-06T08:23:04Z</time></trkpt>
<trkpt lat="46.67955637" lon="6.78040981"><ele>764.866211</ele><time>2010-06-06T08:23:18Z</time></trkpt>
<trkpt lat="46.67957783" lon="6.78032398"><ele>764.866211</ele><time>2010-06-06T08:23:22Z</time></trkpt>
<trkpt lat="46.67940617" lon="6.77995920"><ele>766.308105</ele><time>2010-06-06T08:23:43Z</time></trkpt>
<trkpt lat="46.67917013" lon="6.77950859"><ele>768.711426</ele><time>2010-06-06T08:24:08Z</time></trkpt>
<trkpt lat="46.67901993" lon="6.77912235"><ele>771.595215</ele><time>2010-06-06T08:24:32Z</time></trkpt>
<trkpt lat="46.67895555" lon="6.77899361"><ele>771.595215</ele><time>2010-06-06T08:24:42Z</time></trkpt>
<trkpt lat="46.67865515" lon="6.77888632"><ele>773.037354</ele><time>2010-06-06T08:25:05Z</time></trkpt>
<trkpt lat="46.67856932" lon="6.77845716"><ele>772.556641</ele><time>2010-06-06T08:25:30Z</time></trkpt>
<trkpt lat="46.67848349" lon="6.77824259"><ele>773.037354</ele><time>2010-06-06T08:25:52Z</time></trkpt>
<trkpt lat="46.67801142" lon="6.77781343"><ele>771.595215</ele><time>2010-06-06T08:26:12Z</time></trkpt>
<trkpt lat="46.67730331" lon="6.77753448"><ele>773.518066</ele><time>2010-06-06T08:26:34Z</time></trkpt>
<trkpt lat="46.67702436" lon="6.77749157"><ele>776.882568</ele><time>2010-06-06T08:26:43Z</time></trkpt>
<trkpt lat="46.67661667" lon="6.77740574"><ele>780.247314</ele><time>2010-06-06T08:26:58Z</time></trkpt>
<trkpt lat="46.67627335" lon="6.77738428"><ele>781.20874</ele><time>2010-06-06T08:27:14Z</time></trkpt>
<trkpt lat="46.67623043" lon="6.77736282"><ele>780.728027</ele><time>2010-06-06T08:27:16Z</time></trkpt>
<trkpt lat="46.67612314" lon="6.77738428"><ele>780.728027</ele><time>2010-06-06T08:27:20Z</time></trkpt>
<trkpt lat="46.67562962" lon="6.77740574"><ele>779.285645</ele><time>2010-06-06T08:27:34Z</time></trkpt>
<trkpt lat="46.67535067" lon="6.77766323"><ele>779.285645</ele><time>2010-06-06T08:27:50Z</time></trkpt>
<trkpt lat="46.67537212" lon="6.77766323"><ele>779.766357</ele><time>2010-06-06T08:28:14Z</time></trkpt>
<trkpt lat="46.67543650" lon="6.77762032"><ele>780.247314</ele><time>2010-06-06T08:28:38Z</time></trkpt>
<trkpt lat="46.67560816" lon="6.77785635"><ele>777.84375</ele><time>2010-06-06T08:28:52Z</time></trkpt>
<trkpt lat="46.67599440" lon="6.77843571"><ele>776.401855</ele><time>2010-06-06T08:29:09Z</time></trkpt>
<trkpt lat="46.67635918" lon="6.77903652"><ele>774.479248</ele><time>2010-06-06T08:29:25Z</time></trkpt>
<trkpt lat="46.67665958" lon="6.77953005"><ele>771.114746</ele><time>2010-06-06T08:29:37Z</time></trkpt>
<trkpt lat="46.67691708" lon="6.77993774"><ele>768.711426</ele><time>2010-06-06T08:29:45Z</time></trkpt>
<trkpt lat="46.67741060" lon="6.77995920"><ele>766.308105</ele><time>2010-06-06T08:29:52Z</time></trkpt>
<trkpt lat="46.67762518" lon="6.77993774"><ele>763.904541</ele><time>2010-06-06T08:29:55Z</time></trkpt>
<trkpt lat="46.67777538" lon="6.77991629"><ele>764.385498</ele><time>2010-06-06T08:29:57Z</time></trkpt>
<trkpt lat="46.67796850" lon="6.78002357"><ele>763.904541</ele><time>2010-06-06T08:30:03Z</time></trkpt>
<trkpt lat="46.67803288" lon="6.78017378"><ele>762.462646</ele><time>2010-06-06T08:30:06Z</time></trkpt>
<trkpt lat="46.67805433" lon="6.78043127"><ele>758.617432</ele><time>2010-06-06T08:30:09Z</time></trkpt>
<trkpt lat="46.67794704" lon="6.78107500"><ele>756.214111</ele><time>2010-06-06T08:30:15Z</time></trkpt>
<trkpt lat="46.67783976" lon="6.78141832"><ele>753.811035</ele><time>2010-06-06T08:30:18Z</time></trkpt>
<trkpt lat="46.67734623" lon="6.78231955"><ele>756.214111</ele><time>2010-06-06T08:30:28Z</time></trkpt>
<trkpt lat="46.67726040" lon="6.78249121"><ele>758.617432</ele><time>2010-06-06T08:30:30Z</time></trkpt>
<trkpt lat="46.67723894" lon="6.78259850"><ele>759.098145</ele><time>2010-06-06T08:30:32Z</time></trkpt>
<trkpt lat="46.67732477" lon="6.78283453"><ele>761.020752</ele><time>2010-06-06T08:30:37Z</time></trkpt>
<trkpt lat="46.67751789" lon="6.78347826"><ele>761.982178</ele><time>2010-06-06T08:30:55Z</time></trkpt>
<trkpt lat="46.67758226" lon="6.78367138"><ele>761.020752</ele><time>2010-06-06T08:31:10Z</time></trkpt>
<trkpt lat="46.67766809" lon="6.78388596"><ele>758.136963</ele><time>2010-06-06T08:31:25Z</time></trkpt>
<trkpt lat="46.67768955" lon="6.78392887"><ele>758.136963</ele><time>2010-06-06T08:31:26Z</time></trkpt>
<trkpt lat="46.67771101" lon="6.78405762"><ele>757.175537</ele><time>2010-06-06T08:31:28Z</time></trkpt>
<trkpt lat="46.67781830" lon="6.78476572"><ele>755.25293</ele><time>2010-06-06T08:31:39Z</time></trkpt>
<trkpt lat="46.67786121" lon="6.78502321"><ele>751.888428</ele><time>2010-06-06T08:31:45Z</time></trkpt>
<trkpt lat="46.67788267" lon="6.78530216"><ele>748.523682</ele><time>2010-06-06T08:31:51Z</time></trkpt>
<trkpt lat="46.67790413" lon="6.78536654"><ele>748.523682</ele><time>2010-06-06T08:31:52Z</time></trkpt>
<trkpt lat="46.67792559" lon="6.78560257"><ele>746.601074</ele><time>2010-06-06T08:31:56Z</time></trkpt>
<trkpt lat="46.67798996" lon="6.78590298"><ele>743.236328</ele><time>2010-06-06T08:32:00Z</time></trkpt>
<trkpt lat="46.67811871" lon="6.78624630"><ele>739.391113</ele><time>2010-06-06T08:32:07Z</time></trkpt>
<trkpt lat="46.67820454" lon="6.78631067"><ele>737.949219</ele><time>2010-06-06T08:32:17Z</time></trkpt>
<trkpt lat="46.67824745" lon="6.78633213"><ele>738.910645</ele><time>2010-06-06T08:32:37Z</time></trkpt>
<trkpt lat="46.67826891" lon="6.78639650"><ele>737.949219</ele><time>2010-06-06T08:32:44Z</time></trkpt>
<trkpt lat="46.67841911" lon="6.78663254"><ele>735.545898</ele><time>2010-06-06T08:32:56Z</time></trkpt>
<trkpt lat="46.67848349" lon="6.78673983"><ele>734.104004</ele><time>2010-06-06T08:32:59Z</time></trkpt>
<trkpt lat="46.67867661" lon="6.78706169"><ele>730.258545</ele><time>2010-06-06T08:33:07Z</time></trkpt>
<trkpt lat="46.67874098" lon="6.78721189"><ele>726.41333</ele><time>2010-06-06T08:33:10Z</time></trkpt>
<trkpt lat="46.67897701" lon="6.78757668"><ele>722.568115</ele><time>2010-06-06T08:33:20Z</time></trkpt>
<trkpt lat="46.67901993" lon="6.78761959"><ele>722.568115</ele><time>2010-06-06T08:33:21Z</time></trkpt>
<trkpt lat="46.67912722" lon="6.78783417"><ele>720.164795</ele><time>2010-06-06T08:33:31Z</time></trkpt>
<trkpt lat="46.67912722" lon="6.78785563"><ele>719.684326</ele><time>2010-06-06T08:33:38Z</time></trkpt>
<trkpt lat="46.67921305" lon="6.78804874"><ele>715.838867</ele><time>2010-06-06T08:33:47Z</time></trkpt>
<trkpt lat="46.67932034" lon="6.78828478"><ele>712.474121</ele><time>2010-06-06T08:33:57Z</time></trkpt>
<trkpt lat="46.67940617" lon="6.78839207"><ele>711.993652</ele><time>2010-06-06T08:34:04Z</time></trkpt>
<trkpt lat="46.67940617" lon="6.78841352"><ele>711.993652</ele><time>2010-06-06T08:34:06Z</time></trkpt>
<trkpt lat="46.67934179" lon="6.78841352"><ele>710.551514</ele><time>2010-06-06T08:34:11Z</time></trkpt>
<trkpt lat="46.67899847" lon="6.78826332"><ele>706.225586</ele><time>2010-06-06T08:34:20Z</time></trkpt>
<trkpt lat="46.67882681" lon="6.78819895"><ele>703.341797</ele><time>2010-06-06T08:34:23Z</time></trkpt>
<trkpt lat="46.67863369" lon="6.78813457"><ele>700.938477</ele><time>2010-06-06T08:34:26Z</time></trkpt>
<trkpt lat="46.67831182" lon="6.78811312"><ele>699.015625</ele><time>2010-06-06T08:34:31Z</time></trkpt>
<trkpt lat="46.67811871" lon="6.78811312"><ele>698.534912</ele><time>2010-06-06T08:34:39Z</time></trkpt>
<trkpt lat="46.67792559" lon="6.78813457"><ele>697.57373</ele><time>2010-06-06T08:34:46Z</time></trkpt>
<trkpt lat="46.67794704" lon="6.78837061"><ele>696.612549</ele><time>2010-06-06T08:34:50Z</time></trkpt>
<trkpt lat="46.67814016" lon="6.78875685"><ele>691.325195</ele><time>2010-06-06T08:34:55Z</time></trkpt>
<trkpt lat="46.67822599" lon="6.78892851"><ele>690.844482</ele><time>2010-06-06T08:34:57Z</time></trkpt>
<trkpt lat="46.67831182" lon="6.78916454"><ele>689.402588</ele><time>2010-06-06T08:35:00Z</time></trkpt>
<trkpt lat="46.67829037" lon="6.78978682"><ele>686.999268</ele><time>2010-06-06T08:35:07Z</time></trkpt>
<trkpt lat="46.67818308" lon="6.78985119"><ele>687.960693</ele><time>2010-06-06T08:35:10Z</time></trkpt>
<trkpt lat="46.67809725" lon="6.78987265"><ele>686.999268</ele><time>2010-06-06T08:35:21Z</time></trkpt>
<trkpt lat="46.67807579" lon="6.78985119"><ele>686.999268</ele><time>2010-06-06T08:35:42Z</time></trkpt>
<trkpt lat="46.67796850" lon="6.78989410"><ele>686.038086</ele><time>2010-06-06T08:35:50Z</time></trkpt>
<trkpt lat="46.67760372" lon="6.79019451"><ele>683.634521</ele><time>2010-06-06T08:36:04Z</time></trkpt>
<trkpt lat="46.67711020" lon="6.79066658"><ele>681.711914</ele><time>2010-06-06T08:36:23Z</time></trkpt>
<trkpt lat="46.67668104" lon="6.79113865"><ele>680.750732</ele><time>2010-06-06T08:36:41Z</time></trkpt>
<trkpt lat="46.67644501" lon="6.79146051"><ele>680.750732</ele><time>2010-06-06T08:36:55Z</time></trkpt>
<trkpt lat="46.67646646" lon="6.79171801"><ele>677.38623</ele><time>2010-06-06T08:37:04Z</time></trkpt>
<trkpt lat="46.67646646" lon="6.79173946"><ele>677.38623</ele><time>2010-06-06T08:37:05Z</time></trkpt>
<trkpt lat="46.67650938" lon="6.79216862"><ele>676.424805</ele><time>2010-06-06T08:37:24Z</time></trkpt>
<trkpt lat="46.67640209" lon="6.79197550"><ele>675.463379</ele><time>2010-06-06T08:37:29Z</time></trkpt>
<trkpt lat="46.67618752" lon="6.79173946"><ele>675.944092</ele><time>2010-06-06T08:37:37Z</time></trkpt>
<trkpt lat="46.67620897" lon="6.79178238"><ele>674.502197</ele><time>2010-06-06T08:37:42Z</time></trkpt>
<trkpt lat="46.67623043" lon="6.79184675"><ele>673.541016</ele><time>2010-06-06T08:37:44Z</time></trkpt>
<trkpt lat="46.67631626" lon="6.79199696"><ele>672.57959</ele><time>2010-06-06T08:37:50Z</time></trkpt>
<trkpt lat="46.67633772" lon="6.79214716"><ele>668.734375</ele><time>2010-06-06T08:37:55Z</time></trkpt>
<trkpt lat="46.67633772" lon="6.79223299"><ele>667.772705</ele><time>2010-06-06T08:37:57Z</time></trkpt>
<trkpt lat="46.67631626" lon="6.79240465"><ele>664.888916</ele><time>2010-06-06T08:38:02Z</time></trkpt>
<trkpt lat="46.67629480" lon="6.79261923"><ele>661.524414</ele><time>2010-06-06T08:38:07Z</time></trkpt>
<trkpt lat="46.67620897" lon="6.79291964"><ele>656.717773</ele><time>2010-06-06T08:38:14Z</time></trkpt>
<trkpt lat="46.67618752" lon="6.79300547"><ele>655.275879</ele><time>2010-06-06T08:38:16Z</time></trkpt>
<trkpt lat="46.67612314" lon="6.79324150"><ele>652.391846</ele><time>2010-06-06T08:38:21Z</time></trkpt>
<trkpt lat="46.67610168" lon="6.79337025"><ele>649.0271</ele><time>2010-06-06T08:38:24Z</time></trkpt>
<trkpt lat="46.67601585" lon="6.79362774"><ele>646.143311</ele><time>2010-06-06T08:38:31Z</time></trkpt>
<trkpt lat="46.67597294" lon="6.79367065"><ele>642.298096</ele><time>2010-06-06T08:38:36Z</time></trkpt>
<trkpt lat="46.67597294" lon="6.79369211"><ele>642.298096</ele><time>2010-06-06T08:38:37Z</time></trkpt>
<trkpt lat="46.67599440" lon="6.79382086"><ele>638.933594</ele><time>2010-06-06T08:38:43Z</time></trkpt>
<trkpt lat="46.67618752" lon="6.79431438"><ele>635.568604</ele><time>2010-06-06T08:38:50Z</time></trkpt>
<trkpt lat="46.67620897" lon="6.79440022"><ele>635.568604</ele><time>2010-06-06T08:38:51Z</time></trkpt>
<trkpt lat="46.67623043" lon="6.79493666"><ele>629.320068</ele><time>2010-06-06T08:38:57Z</time></trkpt>
<trkpt lat="46.67620897" lon="6.79549456"><ele>624.994385</ele><time>2010-06-06T08:39:02Z</time></trkpt>
<trkpt lat="46.67620897" lon="6.79609537"><ele>622.110352</ele><time>2010-06-06T08:39:07Z</time></trkpt>
<trkpt lat="46.67620897" lon="6.79641724"><ele>618.264893</ele><time>2010-06-06T08:39:10Z</time></trkpt>
<trkpt lat="46.67620897" lon="6.79652452"><ele>618.264893</ele><time>2010-06-06T08:39:11Z</time></trkpt>
<trkpt lat="46.67620897" lon="6.79680347"><ele>614.900391</ele><time>2010-06-06T08:39:14Z</time></trkpt>
<trkpt lat="46.67620897" lon="6.79688931"><ele>614.900391</ele><time>2010-06-06T08:39:15Z</time></trkpt>
<trkpt lat="46.67616606" lon="6.79761887"><ele>612.016602</ele><time>2010-06-06T08:39:24Z</time></trkpt>
<trkpt lat="46.67597294" lon="6.79770470"><ele>608.651855</ele><time>2010-06-06T08:39:28Z</time></trkpt>
<trkpt lat="46.67590857" lon="6.79770470"><ele>607.209961</ele><time>2010-06-06T08:39:29Z</time></trkpt>
<trkpt lat="46.67577982" lon="6.79772615"><ele>606.248535</ele><time>2010-06-06T08:39:31Z</time></trkpt>
<trkpt lat="46.67541504" lon="6.79770470"><ele>604.326172</ele><time>2010-06-06T08:39:43Z</time></trkpt>
<trkpt lat="46.67539358" lon="6.79768324"><ele>604.326172</ele><time>2010-06-06T08:39:44Z</time></trkpt>
<trkpt lat="46.67532921" lon="6.79768324"><ele>603.364502</ele><time>2010-06-06T08:39:46Z</time></trkpt>
<trkpt lat="46.67524338" lon="6.79766178"><ele>601.922607</ele><time>2010-06-06T08:39:51Z</time></trkpt>
<trkpt lat="46.67509317" lon="6.79766178"><ele>598.557861</ele><time>2010-06-06T08:40:02Z</time></trkpt>
<trkpt lat="46.67485714" lon="6.79781199"><ele>595.193359</ele><time>2010-06-06T08:40:23Z</time></trkpt>
<trkpt lat="46.67481422" lon="6.79781199"><ele>591.828857</ele><time>2010-06-06T08:40:26Z</time></trkpt>
<trkpt lat="46.67472839" lon="6.79776907"><ele>587.502686</ele><time>2010-06-06T08:40:29Z</time></trkpt>
<trkpt lat="46.67459965" lon="6.79770470"><ele>584.138184</ele><time>2010-06-06T08:40:33Z</time></trkpt>
<trkpt lat="46.67451382" lon="6.79766178"><ele>583.176758</ele><time>2010-06-06T08:40:35Z</time></trkpt>
<trkpt lat="46.67432070" lon="6.79751158"><ele>578.851074</ele><time>2010-06-06T08:40:42Z</time></trkpt>
<trkpt lat="46.67425632" lon="6.79746866"><ele>578.370361</ele><time>2010-06-06T08:40:44Z</time></trkpt>
<trkpt lat="46.67417049" lon="6.79742575"><ele>575.967041</ele><time>2010-06-06T08:40:48Z</time></trkpt>
<trkpt lat="46.67404175" lon="6.79736137"><ele>574.525146</ele><time>2010-06-06T08:40:57Z</time></trkpt>
<trkpt lat="46.67397738" lon="6.79749012"><ele>573.563965</ele><time>2010-06-06T08:41:02Z</time></trkpt>
<trkpt lat="46.67397738" lon="6.79772615"><ele>572.602539</ele><time>2010-06-06T08:41:10Z</time></trkpt>
<trkpt lat="46.67399883" lon="6.79781199"><ele>572.602539</ele><time>2010-06-06T08:41:15Z</time></trkpt>
<trkpt lat="46.67414904" lon="6.79830551"><ele>569.718506</ele><time>2010-06-06T08:41:28Z</time></trkpt>
<trkpt lat="46.67417049" lon="6.79834843"><ele>569.237793</ele><time>2010-06-06T08:41:29Z</time></trkpt>
<trkpt lat="46.67404175" lon="6.79879904"><ele>566.35376</ele><time>2010-06-06T08:41:36Z</time></trkpt>
<trkpt lat="46.67399883" lon="6.79886341"><ele>565.873291</ele><time>2010-06-06T08:41:39Z</time></trkpt>
<trkpt lat="46.67395592" lon="6.79892778"><ele>566.834473</ele><time>2010-06-06T08:41:42Z</time></trkpt>
<trkpt lat="46.67425632" lon="6.79924965"><ele>567.315186</ele><time>2010-06-06T08:41:53Z</time></trkpt>
<trkpt lat="46.67455673" lon="6.79957151"><ele>570.198975</ele><time>2010-06-06T08:42:08Z</time></trkpt>
<trkpt lat="46.67453527" lon="6.79961443"><ele>569.237793</ele><time>2010-06-06T08:42:22Z</time></trkpt>
<trkpt lat="46.67453527" lon="6.79963589"><ele>568.75708</ele><time>2010-06-06T08:42:37Z</time></trkpt>
<trkpt lat="46.67451382" lon="6.79963589"><ele>568.276367</ele><time>2010-06-06T08:43:10Z</time></trkpt>
<trkpt lat="46.67438507" lon="6.79976463"><ele>564.911865</ele><time>2010-06-06T08:43:20Z</time></trkpt>
<trkpt lat="46.67434216" lon="6.79982901"><ele>564.911865</ele><time>2010-06-06T08:43:26Z</time></trkpt>
<trkpt lat="46.67419195" lon="6.79997921"><ele>561.06665</ele><time>2010-06-06T08:43:41Z</time></trkpt>
<trkpt lat="46.67412758" lon="6.80006504"><ele>560.585938</ele><time>2010-06-06T08:43:49Z</time></trkpt>
<trkpt lat="46.67419195" lon="6.80021524"><ele>559.144043</ele><time>2010-06-06T08:43:56Z</time></trkpt>
<trkpt lat="46.67457819" lon="6.80070877"><ele>562.028076</ele><time>2010-06-06T08:44:13Z</time></trkpt>
<trkpt lat="46.67479277" lon="6.80083752"><ele>562.989258</ele><time>2010-06-06T08:44:19Z</time></trkpt>
<trkpt lat="46.67490005" lon="6.80098772"><ele>567.795654</ele><time>2010-06-06T08:44:23Z</time></trkpt>
<trkpt lat="46.67490005" lon="6.80103064"><ele>567.315186</ele><time>2010-06-06T08:44:24Z</time></trkpt>
<trkpt lat="46.67496443" lon="6.80113792"><ele>567.315186</ele><time>2010-06-06T08:44:30Z</time></trkpt>
<trkpt lat="46.67500734" lon="6.80120230"><ele>567.315186</ele><time>2010-06-06T08:44:46Z</time></trkpt>
<trkpt lat="46.67500734" lon="6.80120230"><ele>568.276367</ele><time>2010-06-06T08:45:29Z</time></trkpt>
<trkpt lat="46.67500734" lon="6.80120230"><ele>568.276367</ele><time>2010-06-06T08:46:17Z</time></trkpt>
<trkpt lat="46.67498589" lon="6.80120230"><ele>567.315186</ele><time>2010-06-06T08:48:22Z</time></trkpt>
<trkpt lat="46.67498589" lon="6.80124521"><ele>567.315186</ele><time>2010-06-06T08:48:57Z</time></trkpt>
<trkpt lat="46.67505026" lon="6.80139542"><ele>567.795654</ele><time>2010-06-06T08:49:21Z</time></trkpt>
<trkpt lat="46.67505026" lon="6.80145979"><ele>563.950439</ele><time>2010-06-06T08:49:27Z</time></trkpt>
<trkpt lat="46.67505026" lon="6.80145979"><ele>567.795654</ele><time>2010-06-06T08:49:28Z</time></trkpt>
<trkpt lat="46.67490005" lon="6.80154562"><ele>567.315186</ele><time>2010-06-06T08:50:06Z</time></trkpt>
<trkpt lat="" lon=""><ele>0</ele><time>Year-Month#-Day#THour:Min:SecZ</time></trkpt>
<trkpt lat="-" lon=""><ele>0</ele><time>-0-0T0:0:0Z</time></trkpt>
<trkpt lat="46.38977051" lon="7.09442139"><ele>0</ele><time>2010-06-09T19:44:35Z</time></trkpt>
<trkpt lat="46.37432098" lon="7.07706213"><ele>0</ele><time>2010-06-09T19:44:35Z</time></trkpt>
<trkpt lat="46.36822701" lon="7.07646132"><ele>0</ele><time>2010-06-09T19:44:35Z</time></trkpt>
<trkpt lat="46.36088848" lon="7.06169844"><ele>0</ele><time>2010-06-09T19:44:35Z</time></trkpt>
<trkpt lat="46.35867834" lon="7.04684973"><ele>0</ele><time>2010-06-09T19:44:35Z</time></trkpt>
<trkpt lat="46.35303497" lon="7.02502728"><ele>0</ele><time>2010-06-09T19:44:36Z</time></trkpt>
<trkpt lat="46.34582520" lon="7.00927734"><ele>0</ele><time>2010-06-09T19:44:36Z</time></trkpt>
<trkpt lat="46.33880384" lon="7.00704139"><ele>0</ele><time>2010-06-09T19:44:36Z</time></trkpt>
<trkpt lat="" lon=""><ele>0</ele><time>-0-0T0:0:0Z</time></trkpt>
<trkpt lat="" lon=""><ele>0</ele><time>-0-0T0:0:0Z</time></trkpt>
<trkpt lat="46.56315755" lon="6.60320263"><ele>0</ele><time>2010-06-09T19:44:36Z</time></trkpt>
<trkpt lat="46.56310374" lon="6.60283333"><ele>0</ele><time>2010-06-09T19:44:36Z</time></trkpt>
<trkpt lat="46.56271935" lon="6.60304070"><ele>0</ele><time>2010-06-09T19:44:36Z</time></trkpt>
<trkpt lat="46.56263351" lon="6.60377026"><ele>0</ele><time>2010-06-09T19:44:36Z</time></trkpt>
<trkpt lat="46.58082962" lon="6.60587311"><ele>0</ele><time>2010-06-09T19:44:36Z</time></trkpt>
<trkpt lat="46.58095837" lon="6.60578728"><ele>0</ele><time>2010-06-09T19:44:37Z</time></trkpt>
<trkpt lat="46.58258915" lon="6.60050869"><ele>0</ele><time>2010-06-09T19:44:37Z</time></trkpt>
<trkpt lat="46.58267498" lon="6.60020828"><ele>0</ele><time>2010-06-09T19:44:37Z</time></trkpt>
<trkpt lat="46.58082962" lon="6.59570217"><ele>0</ele><time>2010-06-09T19:44:37Z</time></trkpt>
<trkpt lat="46.58114126" lon="6.59533186"><ele>0</ele><time>2010-06-09T19:44:37Z</time></trkpt>
<trkpt lat="" lon=""><ele>0</ele><time>-0-0T0:0:0Z</time></trkpt>
<trkpt lat="" lon=""><ele>0</ele><time>-0-0T0:0:0Z</time></trkpt>
<trkpt lat="46.56315755" lon="6.60320263"><ele>0</ele><time>2010-06-09T19:44:37Z</time></trkpt>
<trkpt lat="46.56310374" lon="6.60283333"><ele>0</ele><time>2010-06-09T19:44:37Z</time></trkpt>
<trkpt lat="46.56271935" lon="6.60304070"><ele>0</ele><time>2010-06-09T19:44:37Z</time></trkpt>
<trkpt lat="46.56263351" lon="6.60377026"><ele>0</ele><time>2010-06-09T19:44:38Z</time></trkpt>
<trkpt lat="46.55696869" lon="6.60132408"><ele>0</ele><time>2010-06-09T19:44:38Z</time></trkpt>
<trkpt lat="46.55417919" lon="6.62033558"><ele>0</ele><time>2010-06-09T19:44:38Z</time></trkpt>
<trkpt lat="46.55143261" lon="6.62093639"><ele>0</ele><time>2010-06-09T19:44:38Z</time></trkpt>
<trkpt lat="46.55104637" lon="6.62372589"><ele>0</ele><time>2010-06-09T19:44:38Z</time></trkpt>
<trkpt lat="46.54868603" lon="6.62381172"><ele>0</ele><time>2010-06-09T19:44:38Z</time></trkpt>
<trkpt lat="46.32123470" lon="6.94001198"><ele>0</ele><time>2010-06-09T19:44:38Z</time></trkpt>
<trkpt lat="46.32071972" lon="6.93863869"><ele>0</ele><time>2010-06-09T19:44:38Z</time></trkpt>
<trkpt lat="46.32312298" lon="6.95138454"><ele>0</ele><time>2010-06-09T19:44:39Z</time></trkpt>
<trkpt lat="46.32719994" lon="6.95898056"><ele>0</ele><time>2010-06-09T19:44:39Z</time></trkpt>
<trkpt lat="46.31913185" lon="6.97048187"><ele>0</ele><time>2010-06-09T19:44:39Z</time></trkpt>
<trkpt lat="46.31896019" lon="6.97078228"><ele>0</ele><time>2010-06-09T19:44:39Z</time></trkpt>
<trkpt lat="46.32183552" lon="7.00073719"><ele>0</ele><time>2010-06-09T19:44:39Z</time></trkpt>
<trkpt lat="46.36110306" lon="7.04923153"><ele>0</ele><time>2010-06-09T19:44:39Z</time></trkpt>
<trkpt lat="46.36054516" lon="7.05395222"><ele>0</ele><time>2010-06-09T19:44:39Z</time></trkpt>
<trkpt lat="46.36256218" lon="7.05051899"><ele>0</ele><time>2010-06-09T19:44:39Z</time></trkpt>
<trkpt lat="46.35436535" lon="7.03494072"><ele>0</ele><time>2010-06-09T19:44:40Z</time></trkpt>
<trkpt lat="46.34191990" lon="7.01743126"><ele>0</ele><time>2010-06-09T19:44:40Z</time></trkpt>
<trkpt lat="46.34264946" lon="7.01352596"><ele>0</ele><time>2010-06-09T19:44:40Z</time></trkpt>
<trkpt lat="46.34282112" lon="7.01331139"><ele>0</ele><time>2010-06-09T19:44:40Z</time></trkpt>
<trkpt lat="46.34294987" lon="7.01331139"><ele>0</ele><time>2010-06-09T19:44:40Z</time></trkpt>
<trkpt lat="46.34307861" lon="7.01271057"><ele>0</ele><time>2010-06-09T19:44:40Z</time></trkpt>
<trkpt lat="46.34355068" lon="7.01309681"><ele>0</ele><time>2010-06-09T19:44:40Z</time></trkpt>
<trkpt lat="" lon=""><ele>0</ele><time>-0-0T0:0:0Z</time></trkpt>
</trkseg></trk></gpx>